DW4391 Weather Reports


Display with metric or nautical units.
time (UTC)temp
F
wind
direction
speed
MPH
gust
MPH
rain 1hr
in
rain 24hr
in
rain mn
in
humidity
%
barometer
mb
20181118160017 51 58 0.0 0.0 0.00 0.00 0.00 84 1024.5
20181118154535 49 240 0.0 0.0 0.00 0.00 0.00 43 1024.7
20181118153015 48 240 0.0 0.0 0.00 0.00 0.00 100 1024.8
20181118151503 47 240 0.0 0.0 0.00 0.00 0.00 100 1024.7
20181118150203 45 240 0.0 0.0 0.00 0.00 0.00 100 1024.6
20181118144706 43 240 0.0 0.0 0.00 0.00 0.00 100 1024.3
20181118143154 42 240 0.0 0.0 0.00 0.00 0.00 100 1024.3
20181118141625 39 240 0.0 0.0 0.00 0.00 0.00 100 1024.5
20181118140118 38 240 0.0 0.0 0.00 0.00 0.00 3 1024.6
20181118134551 37 240 0.0 0.0 0.00 0.00 0.00 6 1024.3
20181118133051 37 240 0.0 0.0 0.00 0.00 0.00 6 1024.2
20181118131531 36 240 0.0 0.0 0.00 0.00 0.00 7 1024.2
20181118130106 35 240 0.0 0.0 0.00 0.00 0.00 10 1024.0
20181118124521 34 240 0.0 0.0 0.00 0.00 0.00 13 1024.1
20181118123018 34 243 0.0 0.0 0.00 0.00 0.00 15 1023.6
20181118121542 34 243 0.0 0.0 0.00 0.00 0.00 17 1023.5
20181118120008 34 242 0.0 0.0 0.00 0.00 0.00 17 1023.4
20181118114645 34 242 0.0 0.0 0.00 0.00 0.00 16 1023.4
20181118113151 34 242 0.0 0.0 0.00 0.00 0.00 16 1023.4
20181118111626 34 242 0.0 0.0 0.00 0.00 0.00 18 1023.3
20181118110151 34 243 0.0 0.0 0.00 0.00 0.00 21 1023.2
20181118104623 34 242 0.0 0.0 0.00 0.00 0.00 22 1022.8
20181118103209 35 242 0.0 0.0 0.00 0.00 0.00 21 1022.7
20181118101544 35 240 0.0 0.0 0.00 0.00 0.00 19 1022.7
20181118100040 35 243 0.0 0.0 0.00 0.00 0.00 20 1022.9
20181118094556 35 242 0.0 0.0 0.00 0.00 0.00 21 1022.9
20181118093027 35 243 0.0 0.0 0.00 0.00 0.00 23 1022.8
20181118091530 35 240 0.0 0.0 0.00 0.00 0.00 23 1022.7
20181118090034 36 242 0.0 0.0 0.00 0.00 0.00 24 1022.5
20181118084610 36 242 0.0 0.0 0.00 0.00 0.00 25 1022.5
20181118083027 36 243 0.0 0.0 0.00 0.00 0.00 24 1022.5
20181118081527 36 242 0.0 0.0 0.00 0.00 0.00 26 1022.6
20181118080023 36 240 0.0 0.0 0.00 0.00 0.00 25 1022.5
20181118074518 36 242 0.0 0.0 0.00 0.00 0.00 30 1022.5
20181118073017 36 240 0.0 0.0 0.00 0.00 0.00 31 1022.3
20181118071523 36 242 0.0 0.0 0.00 0.00 0.00 32 1022.3
20181118070035 36 240 0.0 0.0 0.00 0.00 0.00 34 1022.4
20181118064508 37 240 0.0 0.0 0.00 0.00 0.00 35 1022.4
20181118063006 37 240 0.0 0.0 0.00 0.00 0.00 39 1022.4
20181118061629 38 240 0.0 0.0 0.00 0.00 0.00 36 1022.3
20181118060214 38 240 0.0 0.0 0.00 0.00 0.00 38 1022.5
20181118054623 38 240 0.0 0.0 0.00 0.00 0.00 39 1022.5
20181118053133 38 240 0.0 0.0 0.00 0.00 0.00 41 1022.8
20181118051643 39 240 0.0 0.0 0.00 0.00 0.00 42 1022.7
20181118050108 39 240 0.0 0.0 0.00 0.00 0.00 45 1022.8
20181118044605 39 240 0.0 0.0 0.00 0.00 0.00 47 1022.8
20181118043115 40 240 0.0 0.0 0.00 0.00 0.00 51 1022.8
20181118041548 40 240 0.0 0.0 0.00 0.00 0.00 53 1022.7
20181118040058 40 240 0.0 0.0 0.00 0.00 0.00 56 1022.9
20181118034554 41 240 0.0 0.0 0.00 0.00 0.00 60 1022.9
20181118033039 41 240 0.0 0.0 0.00 0.00 0.00 62 1022.9
20181118031542 42 240 0.0 0.0 0.00 0.00 0.00 66 1022.6
20181118030033 43 240 0.0 0.0 0.00 0.00 0.00 68 1022.6
20181118024515 43 240 0.0 0.0 0.00 0.00 0.00 71 1022.5
20181118023016 44 240 0.0 0.0 0.00 0.00 0.00 73 1022.4
20181118021706 44 240 0.0 0.0 0.00 0.00 0.00 75 1022.3
20181118020143 45 240 0.0 0.0 0.00 0.00 0.00 78 1022.2
20181118014657 46 240 0.0 0.0 0.00 0.00 0.00 81 1022.4
20181118013152 46 240 0.0 0.0 0.00 0.00 0.00 82 1022.4
20181118011555 47 240 0.0 0.0 0.00 0.00 0.00 83 1022.3
20181118010122 47 240 0.0 0.0 0.00 0.00 0.00 85 1022.1
20181118004645 48 240 0.0 0.0 0.00 0.00 0.00 85 1022.0
20181118003053 48 240 0.0 0.0 0.00 0.00 0.00 85 1021.7
20181118001610 49 240 0.0 0.0 0.00 0.00 0.00 84 1021.7
20181118000049 50 240 0.0 0.0 0.00 0.00 0.00 83 1021.7
20181117234542 50 240 0.0 0.0 0.00 0.00 0.00 83 1021.6
20181117233017 50 240 0.0 0.0 0.00 0.00 0.00 81 1021.6
20181117231543 51 240 0.0 0.0 0.00 0.00 0.00 80 1021.3
20181117230005 52 240 0.0 0.0 0.00 0.00 0.00 79 1021.4
20181117224710 53 240 0.0 0.0 0.00 0.00 0.00 75 1021.6
20181117223140 54 240 0.0 0.0 0.00 0.00 0.00 74 1021.6
20181117221733 55 240 0.0 0.0 0.00 0.00 0.00 70 1021.5
20181117220135 56 240 0.0 0.0 0.00 0.00 0.00 68 1021.5
20181117214644 57 240 0.0 0.0 0.00 0.00 0.00 65 1021.5
20181117213104 58 240 0.0 0.0 0.00 0.00 0.00 62 1021.5
20181117211543 59 240 0.0 0.0 0.00 0.00 0.00 59 1021.4
20181117210056 60 240 0.0 0.0 0.00 0.00 0.00 54 1021.4
20181117204541 60 240 0.0 0.0 0.00 0.00 0.00 53 1021.4
20181117203024 60 243 0.0 0.0 0.00 0.00 0.00 57 1021.4
20181117201600 60 243 0.0 0.0 0.00 0.00 0.00 52 1021.4
20181117200014 60 243 0.0 0.0 0.00 0.00 0.00 51 1021.5
20181117194507 60 230 0.0 0.0 0.00 0.00 0.00 49 1021.6
20181117191645 60 242 0.0 0.0 0.00 0.00 0.00 53 1021.3
20181117190130 60 76 0.0 0.0 0.00 0.00 0.00 54 1021.4
20181117184625 59 263 0.0 0.0 0.00 0.00 0.00 53 1021.5
20181117183131 59 321 0.0 0.0 0.00 0.00 0.00 55 1021.7
20181117181638 59 244 0.0 0.0 0.00 0.00 0.00 54 1022.1
20181117180123 59 23 0.0 0.0 0.00 0.00 0.00 59 1022.3
20181117174531 59 328 0.0 0.0 0.00 0.00 0.00 57 1022.4
20181117173101 59 58 0.0 0.0 0.00 0.00 0.00 60 1022.6
20181117171614 59 39 0.0 0.0 0.00 0.00 0.00 60 1022.8
20181117170023 58 246 0.0 0.0 0.00 0.00 0.00 62 1023.0
20181117164520 56 101 0.0 0.0 0.00 0.00 0.00 63 1023.1
20181117163015 55 284 0.0 0.0 0.00 0.00 0.00 71 1023.4
20181117161511 53 267 0.0 0.0 0.00 0.00 0.00 76 1023.6
20181117160307 51 288 0.0 0.0 0.00 0.00 0.00 77 1023.6